�N����,����,�~����,�C��,���x,�C��,����,���ϕ���,�ő�u�ԕ���,�ő厞����,���˗�,�I�_���x,�n�����x,�ő啗���N��,DTYPE
"20/10/05","00:10",0.0,20.5,90.0,1005.2,299.9,0.7,1.8,336.1,0.00,18.8,22.2,"00:00:08",1
"20/10/05","00:20",0.0,20.4,90.1,1004.8,308.7,0.8,1.4,344.1,0.00,18.8,22.2,"00:19:28",1
"20/10/05","00:30",0.0,20.4,90.2,1004.5,315.9,1.0,1.3,318.6,0.00,18.8,22.1,"00:28:24",1
"20/10/05","00:40",0.0,20.5,90.3,1005.2,325.8,1.2,1.8,312.6,0.00,18.9,21.9,"00:34:16",1
"20/10/05","00:50",0.0,20.5,90.3,1004.3,329.4,1.0,1.8,343.6,0.00,18.9,22.1,"00:46:24",1
"20/10/05","01:00",0.0,20.5,90.5,1004.3,318.6,0.8,1.3,323.0,0.00,18.9,21.9,"00:58:32",1
"20/10/05","01:10",0.0,20.3,90.6,1004.8,290.4,0.7,1.6,331.7,0.00,18.8,22.0,"01:03:36",1
"20/10/05","01:20",0.0,20.2,90.7,1004.5,310.3,1.1,1.3,319.6,0.00,18.7,21.9,"01:14:56",1
"20/10/05","01:30",0.0,20.2,90.9,1005.0,315.6,1.0,1.4,333.3,0.00,18.7,21.8,"01:29:52",1
"20/10/05","01:40",0.0,20.2,90.9,1004.3,309.1,0.8,1.4,321.1,0.00,18.7,22.0,"01:30:08",1
"20/10/05","01:50",0.0,20.2,91.1,1004.5,313.3,1.0,1.4,315.2,0.00,18.7,22.0,"01:45:36",1
"20/10/05","02:00",0.0,20.3,91.3,1004.5,323.6,0.6,1.6,309.9,0.00,18.9,22.0,"01:50:02",1
"20/10/05","02:10",0.0,20.3,91.4,1004.5,320.2,1.2,1.9,330.2,0.00,18.9,22.0,"02:00:32",1
"20/10/05","02:20",0.0,20.2,91.5,1004.8,307.2,1.1,1.6,330.1,0.00,18.8,22.0,"02:15:28",1
"20/10/05","02:30",0.0,20.2,91.7,1004.3,303.4,1.0,1.7,333.7,0.00,18.8,22.0,"02:21:04",1
"20/10/05","02:40",0.0,20.2,91.8,1004.3,295.2,0.6,1.4,321.9,0.00,18.9,21.9,"02:39:36",1
"20/10/05","02:50",0.0,20.3,91.9,1004.8,319.9,1.5,2.0,335.1,0.00,19.0,22.0,"02:44:16",1
"20/10/05","03:00",0.0,20.3,92.1,1004.5,298.6,1.0,1.6,317.8,0.00,19.0,21.9,"02:57:04",1
"20/10/05","03:10",0.0,20.3,92.2,1004.3,307.0,0.6,1.2,312.6,0.00,19.0,21.8,"03:09:52",1
"20/10/05","03:20",0.0,20.2,92.3,1004.3,313.5,1.1,1.2,320.7,0.00,19.0,21.8,"03:10:16",1
"20/10/05","03:30",0.0,20.2,92.4,1004.3,288.5,0.7,1.2,302.2,0.00,19.0,22.0,"03:25:52",1
"20/10/05","03:40",0.0,20.2,92.5,1004.1,308.0,1.1,1.6,321.7,0.00,19.0,21.9,"03:32:00",1
"20/10/05","03:50",0.0,20.2,92.7,1004.3,306.9,1.1,1.6,317.8,0.00,19.0,21.9,"03:44:00",1
"20/10/05","04:00",0.0,20.3,92.8,1004.3,310.4,1.1,1.4,330.1,0.00,19.1,21.8,"03:54:32",1
"20/10/05","04:10",0.0,20.3,92.8,1004.3,304.0,0.7,1.4,312.8,0.00,19.1,21.7,"04:07:20",1
"20/10/05","04:20",0.0,20.4,93.0,1004.1,316.8,0.8,1.3,319.5,0.00,19.3,21.7,"04:10:32",1
"20/10/05","04:30",0.0,20.5,93.1,1004.1,327.2,1.2,2.1,331.9,0.00,19.4,21.9,"04:23:12",1
"20/10/05","04:40",0.0,20.4,93.2,1004.3,302.5,1.0,1.7,317.6,0.00,19.3,21.9,"04:32:16",1
"20/10/05","04:50",0.0,20.4,93.2,1004.3,291.3,0.8,1.6,317.9,0.00,19.3,21.7,"04:46:56",1
"20/10/05","05:00",0.0,20.3,93.3,1004.1,303.5,1.0,1.7,323.8,0.00,19.2,21.7,"04:58:00",1
"20/10/05","05:10",0.0,20.4,93.5,1004.5,327.3,1.3,2.0,328.0,0.00,19.4,21.8,"05:09:12",1
"20/10/05","05:20",0.0,20.4,93.6,1004.3,321.6,1.1,1.4,332.9,0.00,19.4,21.9,"05:10:08",1
"20/10/05","05:30",0.0,20.4,93.6,1004.1,294.3,0.6,1.1,289.7,0.00,19.4,21.9,"05:20:40",1
"20/10/05","05:40",0.0,20.3,93.7,1004.1,294.9,0.7,1.2,310.3,0.00,19.3,21.7,"05:34:40",1
"20/10/05","05:50",0.0,20.4,93.8,1003.8,319.8,1.3,1.9,318.7,0.00,19.4,21.8,"05:48:32",1
"20/10/05","06:00",0.0,20.4,93.9,1004.1,328.4,1.3,1.9,325.1,0.00,19.4,21.9,"05:59:44",1
"20/10/05","06:10",0.0,20.4,94.0,1004.5,329.8,1.2,1.8,323.4,0.00,19.4,21.7,"06:05:36",1
"20/10/05","06:20",0.0,20.4,94.0,1004.1,320.0,1.2,1.7,316.6,0.00,19.4,21.8,"06:14:24",1
"20/10/05","06:30",0.0,20.4,94.1,1003.8,287.6,0.7,1.4,310.1,0.00,19.5,21.9,"06:20:08",1
"20/10/05","06:40",0.0,20.5,94.2,1004.1,294.3,1.1,1.7,324.4,0.00,19.6,21.5,"06:37:36",1
"20/10/05","06:50",0.0,20.4,94.2,1004.1,293.8,0.7,1.4,306.7,0.00,19.5,21.7,"06:44:40",1
"20/10/05","07:00",0.0,20.6,94.3,1004.1,314.5,1.0,1.7,327.8,0.01,19.7,22.0,"06:52:16",1
"20/10/05","07:10",0.0,20.7,94.3,1004.1,324.6,1.2,1.9,330.5,0.00,19.8,21.7,"07:00:32",1
"20/10/05","07:20",0.0,20.7,94.4,1004.5,305.1,1.1,1.8,331.8,0.01,19.8,21.9,"07:10:16",1
"20/10/05","07:30",0.0,20.9,94.4,1004.5,317.6,1.2,1.8,327.3,0.02,20.0,21.8,"07:23:20",1
"20/10/05","07:40",0.0,21.0,94.5,1004.5,303.8,1.1,1.8,332.8,0.02,20.1,21.9,"07:31:20",1
"20/10/05","07:50",0.0,21.2,94.5,1004.3,320.3,1.2,2.5,341.4,0.04,20.3,22.0,"07:42:16",1
"20/10/05","08:00",0.0,21.5,94.5,1004.3,126.6,0.2,0.6,208.0,0.06,20.6,22.0,"07:57:12",1
"20/10/05","08:10",0.0,21.7,94.3,1004.5,299.5,0.8,2.4,335.4,0.05,20.8,22.1,"08:09:52",1
"20/10/05","08:20",0.0,21.8,94.3,1004.3,307.3,1.1,2.2,336.9,0.04,20.9,21.9,"08:10:08",1
"20/10/05","08:30",0.0,21.7,93.6,1004.3,286.8,1.0,3.2,227.7,0.01,20.7,21.9,"08:29:04",1
"20/10/05","08:40",0.0,21.1,93.7,1004.8,312.5,2.0,3.7,340.6,0.00,20.1,22.1,"08:38:40",1
"20/10/05","08:50",0.0,21.2,93.4,1005.0,335.9,1.8,3.6,343.6,0.05,20.1,22.1,"08:48:48",1
"20/10/05","09:00",0.0,20.9,92.7,1005.2,310.3,2.0,3.7,309.8,0.04,19.7,22.0,"08:56:16",1
"20/10/05","09:10",0.0,21.0,91.7,1005.2,310.2,1.3,3.6,336.3,0.06,19.6,22.1,"09:06:24",1
"20/10/05","09:20",0.0,21.1,90.4,1005.5,324.3,2.1,3.7,340.3,0.07,19.5,22.1,"09:14:48",1
"20/10/05","09:30",0.0,21.6,88.3,1005.5,327.2,2.3,5.5,345.8,0.13,19.6,21.9,"09:23:20",1
"20/10/05","09:40",0.0,22.0,85.3,1005.0,326.2,2.2,4.7,345.6,0.14,19.5,22.2,"09:33:04",1
"20/10/05","09:50",0.0,22.4,82.1,1005.0,325.5,1.8,3.7,340.1,0.18,19.2,22.2,"09:48:40",1
"20/10/05","10:00",0.0,22.8,78.9,1005.0,320.4,1.6,3.5,335.9,0.20,19.0,22.2,"09:58:32",1
"20/10/05","10:10",0.0,23.1,76.1,1004.8,329.8,1.7,4.4,313.0,0.19,18.7,22.5,"10:09:28",1
"20/10/05","10:20",0.0,23.0,74.0,1004.8,334.5,2.3,4.5,318.8,0.17,18.2,22.4,"10:11:44",1
"20/10/05","10:30",0.0,23.1,73.4,1004.8,335.0,2.3,5.2,339.8,0.18,18.1,22.7,"10:26:08",1
"20/10/05","10:40",0.0,23.0,72.3,1004.5,336.0,2.3,4.5,354.6,0.16,17.8,22.7,"10:31:12",1
"20/10/05","10:50",0.0,23.1,73.0,1004.5,342.9,1.8,4.3,315.1,0.11,18.0,22.5,"10:43:04",1
"20/10/05","11:00",0.0,22.7,73.5,1004.3,358.1,2.5,4.5,338.3,0.11,17.8,22.6,"10:52:16",1
"20/10/05","11:10",0.0,22.7,73.9,1004.3,344.1,2.5,5.0,348.6,0.13,17.8,22.7,"11:01:04",1
"20/10/05","11:20",0.0,22.6,73.7,1004.8,337.6,3.1,6.4,337.1,0.14,17.7,22.8,"11:15:20",1
"20/10/05","11:30",0.0,22.2,73.9,1004.8,331.9,3.5,7.3,326.4,0.14,17.4,22.6,"11:20:16",1
"20/10/05","11:40",0.0,22.6,73.3,1004.8,354.6,2.7,5.4,341.4,0.21,17.6,22.6,"11:32:08",1
"20/10/05","11:50",0.0,22.7,72.8,1004.8,350.2,2.6,6.2,347.4,0.18,17.6,22.4,"11:40:24",1
"20/10/05","12:00",0.0,22.8,72.3,1004.8,357.1,3.4,5.9,345.3,0.29,17.6,22.6,"11:58:48",1
"20/10/05","12:10",0.0,23.4,71.7,1004.5,358.0,2.8,6.0,351.2,0.51,18.0,22.9,"12:04:24",1
"20/10/05","12:20",0.0,23.6,69.9,1004.1,347.1,3.5,5.6,358.4,0.58,17.8,23.0,"12:13:36",1
"20/10/05","12:30",0.0,23.9,68.2,1004.3,341.9,3.7,7.4,334.8,0.62,17.7,23.1,"12:25:44",1
"20/10/05","12:40",0.0,23.1,68.2,1004.3,347.2,3.0,5.2,343.1,0.28,17.0,23.5,"12:35:12",1
"20/10/05","12:50",0.0,23.0,69.1,1004.3,344.2,3.2,6.5,344.5,0.32,17.1,23.3,"12:42:40",1
"20/10/05","13:00",0.0,22.7,67.0,1004.3,333.8,4.0,7.2,336.5,0.35,16.3,23.6,"12:58:16",1
"20/10/05","13:10",0.0,22.6,68.1,1004.1,333.1,3.5,6.7,2.7,0.26,16.5,23.6,"13:02:00",1
"20/10/05","13:20",0.0,22.3,69.4,1004.1,342.9,2.8,6.2,333.5,0.20,16.5,23.6,"13:12:16",1
"20/10/05","13:30",0.0,21.9,69.8,1004.3,352.4,2.1,5.6,341.6,0.13,16.2,23.5,"13:28:24",1
"20/10/05","13:40",0.0,22.0,70.6,1004.3,350.9,1.5,3.1,334.7,0.10,16.5,23.3,"13:32:16",1
"20/10/05","13:50",0.0,21.9,71.0,1004.1,355.2,1.6,3.4,341.7,0.09,16.4,23.3,"13:42:08",1
"20/10/05","14:00",0.0,22.3,70.6,1004.3,359.6,1.5,3.6,352.3,0.15,16.7,23.4,"13:50:08",1
"20/10/05","14:10",0.0,22.3,68.9,1004.5,352.5,1.5,3.3,343.9,0.11,16.4,23.3,"14:06:40",1
"20/10/05","14:20",0.0,22.4,67.9,1004.8,308.2,1.0,2.0,346.2,0.11,16.2,23.2,"14:12:08",1
"20/10/05","14:30",0.0,22.3,66.1,1004.8,3.1,1.2,2.8,1.8,0.09,15.7,23.3,"14:28:00",1
"20/10/05","14:40",0.0,22.8,64.2,1004.8,355.4,1.6,3.1,358.7,0.16,15.7,23.2,"14:39:04",1
"20/10/05","14:50",0.0,22.6,62.8,1004.5,352.6,1.8,3.9,346.9,0.13,15.2,23.3,"14:49:20",1
"20/10/05","15:00",0.0,22.6,62.3,1004.5,345.1,2.0,4.4,343.7,0.14,15.1,23.2,"14:53:20",1
"20/10/05","15:10",0.0,23.1,61.6,1004.8,290.5,1.1,2.5,247.5,0.15,15.4,23.3,"15:09:36",1
"20/10/05","15:20",0.0,22.6,60.6,1004.8,346.9,2.1,5.8,25.5,0.09,14.6,23.4,"15:15:52",1
"20/10/05","15:30",0.0,22.5,60.5,1005.0,359.6,2.1,4.5,356.3,0.09,14.5,23.2,"15:26:32",1
"20/10/05","15:40",0.0,22.6,60.6,1005.0,358.1,2.0,4.1,349.6,0.11,14.6,23.2,"15:36:16",1
"20/10/05","15:50",0.0,22.9,59.8,1005.2,347.8,2.3,6.4,340.9,0.18,14.7,23.1,"15:42:00",1
"20/10/05","16:00",0.0,22.9,56.9,1004.8,358.3,2.7,8.6,324.2,0.18,14.0,23.2,"15:59:44",1
"20/10/05","16:10",0.0,22.4,56.8,1004.8,344.3,3.2,6.6,326.1,0.13,13.5,23.2,"16:08:08",1
"20/10/05","16:20",0.0,22.0,56.6,1005.2,339.9,3.2,8.5,335.6,0.11,13.0,23.0,"16:19:28",1
"20/10/05","16:30",0.0,21.9,57.4,1005.2,338.0,2.3,5.8,335.9,0.08,13.2,22.9,"16:24:16",1
"20/10/05","16:40",0.0,21.7,58.0,1005.7,336.3,2.1,4.0,338.5,0.06,13.1,22.9,"16:34:24",1
"20/10/05","16:50",0.0,21.4,58.5,1006.0,337.3,2.3,4.5,351.9,0.03,13.0,22.7,"16:40:02",1
"20/10/05","17:00",0.0,20.9,59.3,1006.0,329.2,2.5,5.2,340.6,0.02,12.7,22.6,"16:53:20",1
"20/10/05","17:10",0.0,20.4,58.7,1006.0,342.8,2.8,6.5,337.3,0.00,12.1,22.3,"17:05:04",1
"20/10/05","17:20",0.0,20.0,58.4,1006.2,340.0,3.0,5.5,349.2,0.00,11.6,22.4,"17:14:00",1
"20/10/05","17:30",0.0,19.6,58.2,1006.4,338.1,3.1,8.5,345.7,0.00,11.2,22.1,"17:28:24",1
"20/10/05","17:40",0.0,19.3,57.1,1006.4,340.8,3.1,6.8,342.5,0.00,10.6,22.2,"17:33:28",1
"20/10/05","17:50",0.0,18.9,57.3,1007.1,332.9,3.1,6.5,342.2,0.00,10.3,22.1,"17:46:32",1
"20/10/05","18:00",0.0,18.8,57.0,1006.9,335.5,3.2,6.8,330.2,0.00,10.2,21.9,"17:50:24",1
"20/10/05","18:10",0.0,18.4,58.9,1007.4,336.6,2.3,5.4,340.5,0.00,10.3,21.6,"18:05:12",1
"20/10/05","18:20",0.0,18.1,59.2,1007.6,338.7,2.6,4.9,344.8,0.00,10.1,21.7,"18:18:40",1
"20/10/05","18:30",0.0,18.0,59.1,1007.4,340.3,2.7,6.3,317.2,0.00,9.9,21.5,"18:22:48",1
"20/10/05","18:40",0.0,17.8,59.4,1007.6,348.2,2.1,3.5,342.4,0.00,9.8,21.4,"18:30:32",1
"20/10/05","18:50",0.0,17.5,60.1,1007.6,340.7,1.8,4.0,21.8,0.00,9.7,21.3,"18:41:12",1
"20/10/05","19:00",0.0,17.3,61.0,1008.1,335.6,2.0,3.7,341.0,0.00,9.8,21.2,"18:56:00",1
"20/10/05","19:10",0.0,17.1,62.2,1007.8,323.0,2.0,3.5,326.6,0.00,9.9,21.2,"19:09:44",1
"20/10/05","19:20",0.0,17.2,63.7,1008.1,325.5,2.2,4.7,333.1,0.00,10.3,21.1,"19:12:56",1
"20/10/05","19:30",0.0,17.2,64.4,1008.3,334.5,2.3,4.2,328.8,0.00,10.5,21.0,"19:23:36",1
"20/10/05","19:40",0.0,16.8,65.8,1008.6,325.3,1.5,2.8,307.9,0.00,10.4,20.9,"19:30:16",1
"20/10/05","19:50",0.0,16.2,67.9,1008.6,334.6,1.3,2.0,342.3,0.00,10.3,20.9,"19:42:48",1
"20/10/05","20:00",0.0,15.7,69.5,1008.8,323.8,1.3,2.4,339.2,0.00,10.2,20.8,"19:53:28",1
"20/10/05","20:10",0.0,15.1,71.0,1008.8,312.2,1.1,1.7,333.0,0.00,9.9,20.7,"20:03:52",1
"20/10/05","20:20",0.0,14.9,72.5,1009.3,316.6,1.1,1.9,323.9,0.00,10.0,20.4,"20:13:04",1
"20/10/05","20:30",0.0,14.8,74.2,1009.0,331.3,1.3,2.1,319.3,0.00,10.3,20.4,"20:22:32",1
"20/10/05","20:40",0.0,14.6,75.8,1009.0,322.6,1.3,2.1,339.4,0.00,10.4,20.4,"20:34:16",1
"20/10/05","20:50",0.0,14.6,77.6,1009.3,328.3,1.3,2.7,335.4,0.00,10.8,20.3,"20:42:56",1
"20/10/05","21:00",0.0,14.5,78.4,1009.0,328.1,1.1,1.7,312.6,0.00,10.8,20.4,"20:59:20",1
"20/10/05","21:10",0.0,14.6,79.0,1009.0,334.1,1.2,2.5,343.9,0.00,11.0,20.1,"21:05:12",1
"20/10/05","21:20",0.0,14.9,78.8,1009.5,334.1,1.5,2.2,320.4,0.00,11.3,20.0,"21:10:24",1
"20/10/05","21:30",0.0,14.6,79.0,1009.3,346.2,1.0,2.1,1.6,0.00,11.0,20.1,"21:21:28",1
"20/10/05","21:40",0.0,14.0,80.0,1009.5,290.6,0.8,1.2,295.7,0.00,10.6,20.1,"21:32:16",1
"20/10/05","21:50",0.0,13.6,81.1,1009.0,289.0,0.7,1.4,328.6,0.00,10.5,19.8,"21:48:04",1
"20/10/05","22:00",0.0,13.5,82.4,1009.5,311.6,1.2,2.0,317.0,0.00,10.6,19.8,"21:59:48",1
"20/10/05","22:10",0.0,13.4,83.3,1009.5,313.3,0.8,1.7,306.3,0.00,10.7,19.7,"22:05:36",1
"20/10/05","22:20",0.0,13.2,84.2,1009.7,306.5,1.1,2.2,331.8,0.00,10.6,19.5,"22:10:56",1
"20/10/05","22:30",0.0,13.1,85.0,1009.5,320.2,1.2,2.2,324.3,0.00,10.7,19.7,"22:25:54",1
"20/10/05","22:40",0.0,12.9,85.9,1009.5,297.5,1.3,2.6,324.6,0.00,10.6,19.3,"22:38:50",1
"20/10/05","22:50",0.0,12.8,86.5,1010.0,324.1,1.3,2.1,332.7,0.00,10.6,19.4,"22:49:10",1
"20/10/05","23:00",0.0,13.0,87.2,1009.7,333.4,1.7,2.6,334.0,0.00,11.0,19.4,"22:52:50",1
"20/10/05","23:10",0.0,13.0,87.7,1009.5,331.3,1.6,3.2,330.0,0.00,11.0,19.3,"23:04:54",1
"20/10/05","23:20",0.0,13.8,87.4,1010.2,308.7,1.6,4.0,348.9,0.00,11.8,19.2,"23:11:30",1
"20/10/05","23:30",0.0,13.8,86.7,1010.2,319.6,0.7,1.4,324.7,0.00,11.7,19.2,"23:24:18",1
"20/10/05","23:40",0.0,13.8,86.0,1010.2,302.8,0.6,1.4,315.1,0.00,11.5,19.3,"23:35:22",1
"20/10/05","23:50",0.0,13.4,85.7,1010.2,315.2,1.3,2.7,340.9,0.00,11.1,19.2,"23:41:34",1
"20/10/05","24:00",0.0,13.5,85.6,1009.7,316.4,1.6,2.6,345.7,0.00,11.2,19.1,"23:54:16",1
